Location: Boiro
(42.6475°N, 8.8834°W)
Time: 17:40:18
(UTC+01:00)

A-11 Canister half - Pass Details

Date: 05 December 2021
Orbit: 1516 x 1684 km, 47.2° (Epoch: 26 January)

Event Time Altitude Azimuth Distance (km) Brightness Sun altitude
Rises 05:45:11 0° 182° (S) 4,699 11.6 -33.2°
Reaches altitude 10° 05:49:24 10° 165° (SSE) 3,746 11.2 -32.5°
Maximum altitude 05:55:26 19° 125° (SE) 3,139 11.1 -31.3°
Drops below altitude 10° 06:01:35 10° 85° (E) 3,844 12.0 -30.2°
Sets 06:05:56 0° 69° (ENE) 4,864 12.6 -29.4°
